Location: Kellogg
(38.0159°N, 90.0546°W)
Time: 14:15:51
(UTC+00:00)

Courier 1B - Pass Details

Date: 10 September 2024
Orbit: 962 x 1208 km, 28.3° (Epoch: 07 October)

Event Time Altitude Azimuth Distance (km) Brightness Sun altitude
Rises 01:38:51 0° 263° (W) 4,104 11.9 -16.6°
Reaches altitude 10° 01:41:58 10° 254° (WSW) 3,142 10.9 -17.2°
Maximum altitude 01:48:54 35° 192° (SSW) 1,826 8.8 -18.4°
Enters shadow 01:52:45 23° 146° (SE) 2,296 9.0 -19.1°
Drops below altitude 10° 01:55:42 10° 130° (SE) 3,072 - -19.7°
Sets 01:58:43 0° 122° (ESE) 4,003 - -20.2°
